Starlink 32680

operational
NORAD ID: 62423 Int'l Des: 2024-249 Owner: SPXS Country: US Constellation: starlink
LEOCIRCULAR

关于 Starlink 32680

正在加载描述...

实时位置

正在加载3D地球...

即将过境

高度历史

Altitude vs Time

uPlot chart will show altitude changes over time

两行轨道根数

1 62423U 24249Q 26033.39376328 .00028023 00000-0 10234-2 0 9990
2 62423 42.9996 153.5701 0001001 238.3490 121.7265 15.27598472 62418
Epoch: Feb 2, 2026 • Age: 18 hours

当前状态

高度 487.2 km
速度 7.62 km/s
星下点 -21.39°S, 166.11°E
发射日期 Dec 23, 2024
运行时间 1.1 years
类型 internet

技术详情

分类 Payload
质量 730.00 kg
干质量 700.00 kg
总质量 730.00 kg
长度 0.30 m
直径 4.10 m
跨度 29.00 m
形状 Box + pan
制造商 SPXS
平台类型 Starlink V2M
阶段状态 In Orbit
所有者/国家 SPXS/US

大型星座

Loading constellations...